Regional Weather Roundup
Issued by NWS Green Bay, WI

Home | Current Version | Previous Version | Text Only | Print | Product List | Glossary On
Versions: 1 2 3 4 5 6 7 8 9 10 11 12 13 14 15 16 17 18 19 20 21 22 23 24 25 26 27 28 29 30 31 32 33 34 35 36 37 38 39 40 41 42 43 44 45 46 47 48 49 50
000
ASUS43 KGRB 291400
RWRGRB

NORTH-CENTRAL AND NORTHEAST WISCONSIN REGIONAL WEATHER ROUNDUP
NATIONAL WEATHER SERVICE GREEN BAY WI
900 AM CDT THU JUN 29 2017

WIZ005-009-010>012-018-019-291500-
NORTH CENTRAL WISCONSIN

CITY           SKY/WX    TMP DP  RH WIND       PRES   REMARKS
IRONWOOD       CLOUDY    56  56 100 W15       29.61S
MANITOWISH WTR NOT AVBL
ARBOR VITAE    NOT AVBL
EAGLE RIVER    NOT AVBL
LAND O LAKES   NOT AVBL
RHINELANDER    CLOUDY    62  62 100 W15G23    29.64S
PHILLIPS       NOT AVBL
ANTIGO         NOT AVBL
TOMAHAWK       NOT AVBL
MERRILL        CLOUDY    65  63  93 W9        29.65S
$$

WIZ013-073-291500-
NORTHEAST WISCONSIN

CITY           SKY/WX    TMP DP  RH WIND       PRES   REMARKS
IRON MOUNTAIN  CLOUDY    69  63  81 SW8       29.59R
MARINETTE      PTSUNNY   71  64  78 SW10      29.62S
$$

WIZ017-030-035>037-045-291500-
CENTRAL WISCONSIN

CITY           SKY/WX    TMP DP  RH WIND       PRES   REMARKS
MEDFORD        NOT AVBL
WAUSAU         CLOUDY    66  61  84 W15       29.64S
MOSINEE        CLOUDY    66  63  88 W16G22    29.67S
MARSHFIELD     CLOUDY    64  59  83 W9        29.67S
WISC RAPIDS    CLOUDY    67  61  81 W13G20    29.69S
STEVENS POINT  NOT AVBL
WAUPACA        NOT AVBL
SHAWANO        NOT AVBL
CLINTONVILLE   NOT AVBL
WAUTOMA        CLOUDY    70  63  78 W15G23    29.69S
$$

WIZ038-039-048-051-291500-
FOX VALLEY

CITY           SKY/WX    TMP DP  RH WIND       PRES   REMARKS
NWS GREEN BAY  PTSUNNY   72  65  78 SW13G21   29.65F
APPLETON       PTSUNNY   70  64  83 W14G21    29.66F
OSHKOSH        PTSUNNY   70  62  76 W12G25    29.68R
FOND DU LAC    PTSUNNY   73  63  70 W16       29.69S
$$

WIZ022-050-052-291500-
EAST CENTRAL WISCONSIN

CITY           SKY/WX    TMP DP  RH WIND       PRES   REMARKS
EPHRAIM        NOT AVBL
WASHINGTON ISL NOT AVBL
STURGEON BAY     N/A     69  65  86 SW15      29.64S
MANITOWOC      NOT AVBL
SHEBOYGAN      CLOUDY    72  68  87 W20G25    29.69R
$$

LMZ563-521-522-541>543-291500-
LAKESHORE

STATION/POSITION TIME  TEMP    WIND        PRES    VSBY  WAVE
                       AIR SEA DIR/SP/G                  HT/PER
                 (UTC) (F)     (DEG/KT/KT) (MB)    (MI)  (FT/S)
SHEBOYGAN LKSHOR 1300   72     250/ 14/ 17 1004.3S
KEWAUNEE LKSHORE 1330   56     220/  4/  7 1003.9S
NORTHPORT PIER   1340   65     170/  3/ 10 1003.0R
N MID LAKE BUOY  1250   56 54  190/ 14/ 16 1003.3F         6/ 7
S GREEN BAY BUOY 1330   67     220/ 14/ 16 1003.5R
SISTER BAY LKSHO 1323   69     180/ 13/ 15   N/A
CHAMBERS ISLAND  1340   69     180/  5/ 13 1002.7R
MENOMINEE LKSHOR 1324          200/  9/ 13 1002.2
$$




USA.gov is the U.S. government's official web portal to all federal, state and local government web resources and services.